Location: Mason Neck State Park
(38.6428°N, 77.1981°W)
Time: 06:38:41
(UTC-04:00)

Daily predictions for brighter satellites

Satellite Brightness Start Highest point End
(mag) Time Altitude Azimuth Time Altitude Azimuth Time Altitude Azimuth
BREEZE-M DEB (TANK) 3.8 20:40:39 10° WNW 20:44:23 67° SW 20:57:39 10° SE
Resurs 01 Rocket 4.0 20:47:35 10° SSW 20:51:10 24° W 20:54:47 10° NW
Cosmos 2228 4.1 20:49:50 10° NNE 20:53:41 29° ENE 20:57:31 10° SE
Lacrosse 5 rocket 2.5 20:50:28 10° WSW 20:54:09 45° NW 20:58:02 10° NNE
Cosmos 1025 Rocket 3.2 20:50:20 10° S 20:54:44 85° W 20:59:07 10° N
Meteor 1-23 Rocket 4.4 20:49:53 10° S 20:55:20 53° E 21:00:53 10° NNE
Cosmos 2098 Rocket 3.3 20:51:58 10° NNW 20:55:21 60° W 20:59:31 10° S
Cosmos 1743 2.7 20:51:33 10° N 20:55:23 68° E 20:59:11 10° SSE
Cosmos 2251 Rocket 3.7 20:51:13 10° SSW 20:56:31 85° WNW 21:01:55 10° NNE
Cosmos 1892 Rocket 3.6 20:58:28 10° S 21:02:54 80° E 21:07:23 10° N
ERS-1 Rocket 3.1 20:58:29 10° SSE 21:03:24 61° ENE 21:08:22 10° N
Cosmos 1603 4.4 20:59:00 10° SSE 21:03:54 32° ESE 21:08:48 10° NE
USA 234 4.3 21:00:12 10° E 21:06:03 36° NNE 21:11:55 10° NNW
Envisat 3.8 21:02:51 10° SE 21:07:23 34° ENE 21:11:56 10° N
SJ-11-01 4.4 21:04:56 10° SSE 21:09:31 61° ENE 21:14:08 10° N
Meteor 2-9 Rocket 4.5 21:04:37 10° N 21:10:12 55° ENE 21:15:53 10° SSE
Cosmos 1110 Rocket 4.1 21:05:04 10° NNW 21:10:23 87° WSW 21:15:38 10° SSE
USA 186 2.9 21:10:22 10° S 21:13:06 36° W 21:15:42 10° NNW
Meteor 2-4 Rocket 3.8 21:09:11 10° S 21:15:01 82° E 21:20:59 10° N
Abrixas rocket 2.7 21:12:06 10° NW 21:15:30 58° NNE 21:18:26 13° ESE
Okean 2 3.4 21:13:11 10° S 21:17:21 81° E 21:21:33 10° N
Cosmos 2333 Rocket 4.4 21:12:30 10° WSW 21:17:23 30° WNW 21:22:19 10° N
BREEZE M DEB (TANK) 3.3 21:16:46 10° WNW 21:19:40 27° N 21:21:27 10° ENE
Cosmos 2297 3.9 21:14:36 10° NNW 21:20:18 75° WSW 21:26:01 10° SSE
Tsikada Rocket 4.4 21:17:40 10° SSE 21:23:44 47° E 21:29:47 10° NNE
Cosmos 1726 Rocket 4.3 21:23:43 10° NNW 21:28:04 54° W 21:32:21 10° S
Cosmos 1943 4.5 21:25:39 14° SE 21:28:40 21° E 21:32:46 10° NE
H-2A R/B 4.4 21:25:22 10° SSW 21:28:58 34° W 21:32:37 10° NNW
YAOGAN 6 4.3 21:27:50 15° ESE 21:29:38 20° ENE 21:32:25 10° NNE
ISS -2.5 21:29:45 10° SSW 21:32:36 28° SE 21:35:28 10° ENE
PSLV R/B 3.3 21:29:08 10° WSW 21:32:38 62° SSE 21:36:09 10° ENE
Cosmos 2285 Rocket 4.2 21:29:01 10° NNW 21:35:20 77° WSW 21:41:40 10° S
CZ-2C R/B 2.7 21:37:02 10° SSW 21:38:56 22° W 21:40:51 10° NW
SPOT 5 2.8 21:36:20 17° SSE 21:39:38 58° ENE 21:43:54 10° N
Cosmos 1461 3.1 21:35:25 10° NNW 21:39:40 59° ENE 21:42:09 22° SE
Cosmos 2058 Rocket 3.9 21:37:32 10° NNW 21:41:46 49° W 21:45:58 10° SSW
Cosmos 1602 Rocket 3.5 21:41:29 10° S 21:45:58 85° E 21:50:27 10° N
Cosmos 1464 Rocket 4.2 21:39:52 10° NNW 21:45:58 70° W 21:52:05 10° S
CZ-4 SHROUD 3.1 21:46:44 24° SSE 21:48:30 85° ENE 21:51:40 10° N
H-2A R/B 3.8 21:48:11 12° E 21:50:20 16° ENE 21:53:14 10° NNE
ALOS 4.5 21:48:11 10° SW 21:51:48 22° W 21:55:27 10° NW
Aureole 2 Rocket 4.0 21:49:37 10° SW 21:53:23 40° WNW 21:56:51 10° N
GRACE-1 3.9 21:50:55 10° N 21:53:47 87° W 21:55:07 29° S
GRACE-2 3.9 21:51:22 10° N 21:54:14 86° W 21:55:33 29° S
Cosmos 1812 Rocket 3.5 21:53:40 10° N 21:58:03 69° E 22:00:27 26° SSE
SPOT 1/Viking Rocket 3.9 21:55:43 24° SE 21:58:34 49° ENE 22:03:32 10° N
Cosmos 1816 Rocket 4.5 21:54:28 11° S 22:00:34 71° E 22:06:53 10° NNE
Terra 3.6 22:00:40 15° E 22:02:15 18° ENE 22:05:24 10° NNE
Cosmos 2034 Rocket 4.3 21:58:14 10° NNW 22:04:33 67° W 22:10:31 11° S
Cosmos 1634 Rocket 4.4 21:59:58 10° N 22:05:53 46° ENE 22:08:55 27° SE
USA 245 4.3 22:05:43 25° SSE 22:09:22 66° ENE 22:14:41 10° N
H-2A R/B 3.8 22:05:52 10° SSW 22:09:32 29° W 22:13:18 10° NW
SeaSat 1 2.5 22:07:21 25° SSE 22:10:15 73° WSW 22:15:12 10° NNW
Atlas Centaur 2 3.3 22:03:06 10° WSW 22:10:21 43° S 22:15:35 21° ESE
ARGOS 3.4 22:10:34 29° SE 22:13:09 55° ENE 22:18:28 10° N
CZ-4C R/B 4.3 22:12:56 30° ESE 22:13:59 35° ENE 22:17:46 10° N
Cosmos 2369 Rocket 2.9 22:08:45 10° N 22:14:03 40° ENE 22:16:29 27° ESE
DEBRIS 2.5 22:11:34 10° WNW 22:15:24 47° SW 22:15:34 46° SSW
CZ-4B R/B 3.5 22:13:18 10° NNE 22:18:24 86° WNW 22:22:52 14° SSW
NAVSTAR 52 R/B(PAM-D 4.1 22:19:05 10° W 22:23:25 77° S 22:23:42 70° SE
NOAA 11 4.2 22:22:44 34° SE 22:25:02 64° ENE 22:30:24 10° N
COSMOS 2455 3.0 22:20:42 10° SSW 22:26:41 76° WNW 22:32:43 10° NNE
Milstar 3 Cent rocket 4.1 22:24:06 10° WSW 22:27:01 13° SSW 22:27:55 13° SSW
Meteor 2-12 Rocket 4.5 22:22:54 10° N 22:29:00 78° W 22:32:34 26° S
Cosmos 1953 4.3 22:32:03 10° NNE 22:34:19 17° ENE 22:34:19 17° ENE
Cosmos 1953 Rocket 3.5 22:35:33 53° SSE 22:36:26 69° E 22:40:50 10° NNE
ATLAS 3B R/B 2.9 22:29:17 10° SSW 22:36:54 67° ESE 22:44:25 10° NE
Meteor 1-22 Rocket 4.3 22:32:37 10° N 22:38:10 64° E 22:40:01 42° SE
Cosmos 2346 Rocket 4.4 22:36:44 25° S 22:40:36 86° W 22:46:47 10° N
IGS 5A 4.2 22:43:56 37° ENE 22:44:02 37° ENE 22:47:52 10° N
Cosmos 1066 Rocket 4.3 22:43:48 27° SSW 22:47:01 78° W 22:52:50 10° N
USA 234 3.2 22:45:57 38° SSE 22:48:41 75° SW 22:55:17 10° NW
Cosmos 407 Rocket 3.4 22:49:26 45° S 22:51:02 77° ESE 22:56:17 10° NNE
Cosmos 1346 Rocket 2.9 22:56:00 64° WSW 22:56:17 68° W 23:00:13 10° N
DELTA 2 DEB (DPAF) 4.2 22:56:14 59° SSW 22:56:58 73° WSW 23:01:28 10° NNW
SL-23 DEB 4.1 22:51:49 10° SW 22:58:07 68° SE 23:01:54 10° ENE
Cosmos-2242 3.7 22:54:24 10° N 22:58:21 41° ENE 22:58:21 41° ENE
Lacrosse 4 Rocket 1.2 22:59:11 81° NNE 22:59:11 81° NNE 23:03:06 10° NNE
SL-24 R/B 4.4 22:55:01 10° N 22:59:57 74° E 23:00:48 60° SSE
ISS -1.3 23:06:05 10° W 23:09:00 29° NNW 23:11:56 10° NNE
Cosmos 1954 Rocket 3.9 23:09:47 64° ESE 23:10:03 65° ESE 23:15:19 10° NNE
Cosmos 1758 Rocket 3.9 23:10:06 52° WSW 23:10:45 59° W 23:15:05 10° N
USA 238 DEB 3.9 23:10:57 46° SE 23:11:37 48° ESE 23:18:21 10° NE
USA 238 3.9 23:11:06 46° SE 23:11:43 47° ESE 23:18:25 10° NE
Cosmos 1943 3.9 23:07:20 13° SW 23:12:16 51° WNW 23:17:50 10° NNE
Cosmos 1842 3.7 23:13:32 56° NNE 23:13:32 56° NNE 23:16:43 10° N
Meteor 1-21 4.3 23:11:19 46° SSW 23:13:07 80° W 23:18:58 10° N
CARTOSAT-1 3.5 23:14:29 79° W 23:14:29 79° W 23:18:47 10° NNW
Cosmos 1758 4.1 23:15:47 10° N 23:19:02 46° NE 23:19:02 46° NE
Spot 4 3.7 23:22:16 87° S 23:22:21 89° WSW 23:27:10 10° NNW
Cosmos 1943 Rocket 2.3 23:17:26 10° NNW 23:22:54 57° ENE 23:23:31 53° E
Landsat 7 4.4 23:23:17 45° WSW 23:23:48 47° W 23:28:24 10° NNW
H-2A R/B 2.2 23:28:49 57° WSW 23:29:12 58° W 23:34:11 10° NNW
Cosmos 1092 Rocket 4.1 23:33:02 53° ESE 23:33:32 55° E 23:39:39 10° NNE
Cosmos 1766 4.4 23:31:03 10° NNW 23:34:21 39° WNW 23:34:21 39° WNW
Terra 2.4 23:39:33 47° W 23:39:36 47° W 23:44:12 10° NNW
Cosmos 1842 Rocket 4.2 23:38:07 10° N 23:41:34 50° NNE 23:41:34 50° NNE
Cosmos 1570 Rocket 4.2 23:38:16 10° N 23:43:34 60° ENE 23:43:34 60° ENE
Cosmos 1850 Rocket 4.2 23:46:11 60° ENE 23:46:11 60° ENE 23:50:41 10° NNE
Nadezhda 4 Rocket 3.9 23:45:01 66° SSW 23:46:01 87° W 23:52:23 10° N
CZ-4C R/B 3.9 23:54:53 20° ENE 23:54:53 20° ENE 23:57:10 10° NE
